TimePST,TemperatureF,Dew PointF,Humidity,Sea Level PressureIn,VisibilityMPH,Wind Direction,Wind SpeedMPH,Gust SpeedMPH,PrecipitationIn,Events,Conditions,WindDirDegrees,DateUTC
12:35 AM,42.8,35.6,76,30.19,7.0,NW,16.1,26.5,N/A,,Scattered Clouds,310,2013-02-23 08:35:00
12:55 AM,41.0,35.6,81,30.19,7.0,NNW,10.4,-,N/A,,Mostly Cloudy,330,2013-02-23 08:55:00
1:15 AM,37.4,33.8,87,30.19,3.0,North,8.1,20.7,0.04,Rain,Light Rain,350,2013-02-23 09:15:00
1:35 AM,37.4,35.6,93,30.19,5.0,NNW,4.6,-,0.04,,Light Drizzle,330,2013-02-23 09:35:00
1:55 AM,37.4,35.6,93,30.20,5.0,West,9.2,-,0.04,,Mostly Cloudy,260,2013-02-23 09:55:00
2:15 AM,42.8,35.6,76,30.20,7.0,WNW,13.8,20.7,N/A,,Mostly Cloudy,300,2013-02-23 10:15:00
2:35 AM,42.8,35.6,76,30.21,7.0,WNW,12.7,18.4,N/A,,Mostly Cloudy,300,2013-02-23 10:35:00
2:55 AM,41.0,35.6,81,30.22,7.0,WNW,18.4,29.9,0.01,,Mostly Cloudy,290,2013-02-23 10:55:00
3:15 AM,41.0,35.6,81,30.22,7.0,West,13.8,20.7,N/A,,Overcast,260,2013-02-23 11:15:00
3:35 AM,41.0,35.6,81,-9999,7.0,West,9.2,-,N/A,,Mostly Cloudy,280,2013-02-23 11:35:00
3:55 AM,42.8,35.6,76,30.22,5.0,WSW,8.1,-,N/A,,Haze,250,2013-02-23 11:55:00
4:15 AM,41.0,35.6,81,30.23,5.0,WNW,13.8,24.2,N/A,Rain,Light Rain,290,2013-02-23 12:15:00
4:35 AM,42.8,37.4,81,30.24,7.0,WNW,13.8,25.3,N/A,,Overcast,300,2013-02-23 12:35:00
4:55 AM,41.0,35.6,81,30.25,7.0,West,11.5,21.9,N/A,,Overcast,270,2013-02-23 12:55:00
5:15 AM,42.8,35.6,76,30.25,7.0,WNW,11.5,17.3,N/A,,Overcast,290,2013-02-23 13:15:00
5:35 AM,42.8,35.6,76,30.25,7.0,WNW,16.1,23.0,N/A,,Overcast,290,2013-02-23 13:35:00
5:55 AM,42.8,35.6,76,30.27,7.0,NW,13.8,23.0,N/A,,Overcast,310,2013-02-23 13:55:00
6:15 AM,42.8,37.4,81,30.27,7.0,NW,24.2,33.4,N/A,,Overcast,310,2013-02-23 14:15:00
6:55 AM,42.8,37.4,81,30.28,5.0,WNW,15.0,20.7,N/A,,Haze,300,2013-02-23 14:55:00
7:15 AM,42.8,35.6,76,30.29,5.0,NW,15.0,-,N/A,,Haze,310,2013-02-23 15:15:00
7:35 AM,42.8,37.4,81,-9999,4.0,NNW,13.8,19.6,N/A,,Haze,340,2013-02-23 15:35:00
7:55 AM,41.0,37.4,87,30.32,4.0,Calm,Calm,-,N/A,,Overcast,0,2013-02-23 15:55:00
8:15 AM,41.0,37.4,87,30.32,5.0,Calm,Calm,-,N/A,,Overcast,0,2013-02-23 16:15:00
8:35 AM,42.8,37.4,81,30.34,5.0,NW,8.1,-,N/A,,Haze,310,2013-02-23 16:35:00
8:55 AM,44.6,37.4,76,30.34,4.0,WNW,9.2,-,N/A,,Haze,290,2013-02-23 16:55:00
9:15 AM,41.0,35.6,81,30.37,3.0,NW,18.4,25.3,0.02,Rain,Heavy Rain,310,2013-02-23 17:15:00
9:35 AM,41.0,35.6,81,30.37,5.0,NW,4.6,-,0.03,,Mostly Cloudy,310,2013-02-23 17:35:00
9:55 AM,42.8,37.4,81,30.37,4.0,NW,3.5,-,0.03,,Haze,320,2013-02-23 17:55:00
10:15 AM,42.8,37.4,81,30.39,5.0,NNW,11.5,20.7,N/A,,Haze,330,2013-02-23 18:15:00
10:35 AM,42.8,35.6,76,-9999,4.0,NW,6.9,-,N/A,,Haze,310,2013-02-23 18:35:00
10:55 AM,44.6,37.4,76,30.40,4.0,NNW,16.1,20.7,N/A,,Haze,340,2013-02-23 18:55:00
11:15 AM,42.8,35.6,76,30.40,4.0,WNW,10.4,24.2,N/A,Rain,Light Rain,290,2013-02-23 19:15:00
11:35 AM,44.6,35.6,71,30.41,5.0,NW,9.2,-,N/A,,Haze,320,2013-02-23 19:35:00
11:55 AM,46.4,37.4,71,30.42,4.0,NW,9.2,16.1,N/A,,Haze,320,2013-02-23 19:55:00
12:15 PM,44.6,37.4,76,30.41,4.0,WNW,8.1,-,N/A,,Haze,290,2013-02-23 20:15:00
12:35 PM,46.4,37.4,71,30.41,5.0,NNW,13.8,20.7,N/A,,Haze,340,2013-02-23 20:35:00
12:55 PM,46.4,37.4,71,30.41,4.0,NNW,6.9,-,N/A,,Haze,340,2013-02-23 20:55:00
1:15 PM,46.4,37.4,71,30.41,5.0,NW,12.7,18.4,N/A,,Haze,320,2013-02-23 21:15:00
1:35 PM,46.4,37.4,71,30.41,5.0,NNW,16.1,-,N/A,,Haze,340,2013-02-23 21:35:00
1:55 PM,46.4,37.4,71,30.41,7.0,NNW,15.0,19.6,N/A,,Scattered Clouds,330,2013-02-23 21:55:00
2:15 PM,46.4,37.4,71,30.41,7.0,NNW,10.4,-,N/A,,Scattered Clouds,330,2013-02-23 22:15:00
2:35 PM,46.4,37.4,71,30.42,7.0,NW,6.9,-,N/A,,Scattered Clouds,320,2013-02-23 22:35:00
2:55 PM,46.4,35.6,66,30.42,5.0,NNW,11.5,-,N/A,,Haze,330,2013-02-23 22:55:00
3:15 PM,46.4,35.6,66,30.43,7.0,NW,10.4,-,N/A,,Scattered Clouds,320,2013-02-23 23:15:00
3:35 PM,46.4,35.6,66,30.43,5.0,NW,9.2,-,N/A,,Haze,310,2013-02-23 23:35:00
3:55 PM,46.4,37.4,71,30.44,5.0,WNW,9.2,-,N/A,,Haze,290,2013-02-23 23:55:00
4:15 PM,46.4,37.4,71,30.44,5.0,WNW,8.1,-,N/A,,Haze,300,2013-02-24 00:15:00
4:35 PM,46.4,37.4,71,30.44,5.0,WNW,6.9,-,N/A,,Haze,300,2013-02-24 00:35:00
4:55 PM,44.6,33.8,66,30.44,5.0,NW,8.1,-,N/A,,Haze,310,2013-02-24 00:55:00
5:15 PM,44.6,33.8,66,30.45,5.0,NW,6.9,-,N/A,,Haze,320,2013-02-24 01:15:00
5:35 PM,42.8,33.8,70,30.45,5.0,NW,5.8,-,N/A,,Haze,310,2013-02-24 01:35:00
5:55 PM,44.6,35.6,71,30.45,5.0,NW,6.9,-,N/A,,Haze,320,2013-02-24 01:55:00
6:15 PM,42.8,35.6,76,30.46,5.0,NW,5.8,-,N/A,,Haze,320,2013-02-24 02:15:00
6:35 PM,42.8,35.6,76,30.47,5.0,NNW,4.6,-,N/A,,Haze,330,2013-02-24 02:35:00
6:55 PM,42.8,33.8,70,-9999,5.0,NW,3.5,-,N/A,,Haze,320,2013-02-24 02:55:00
7:15 PM,37.4,33.8,87,-9999,7.0,Calm,Calm,-,N/A,,Mostly Cloudy,0,2013-02-24 03:15:00
7:35 PM,37.4,33.8,87,30.47,7.0,Calm,Calm,-,N/A,,Scattered Clouds,0,2013-02-24 03:35:00
7:55 PM,35.6,33.8,93,30.47,7.0,Calm,Calm,-,N/A,,Clear,0,2013-02-24 03:55:00
8:15 PM,35.6,33.8,93,30.47,7.0,Calm,Calm,-,N/A,,Scattered Clouds,0,2013-02-24 04:15:00
8:35 PM,35.6,33.8,93,30.48,7.0,Calm,Calm,-,N/A,,Scattered Clouds,0,2013-02-24 04:35:00
8:55 PM,35.6,35.6,100,30.48,5.0,SE,3.5,-,N/A,,Clear,130,2013-02-24 04:55:00
9:15 PM,35.6,33.8,93,30.47,5.0,SE,5.8,-,N/A,,Clear,130,2013-02-24 05:15:00
9:35 PM,35.6,35.6,100,30.47,7.0,ESE,3.5,-,N/A,,Mostly Cloudy,110,2013-02-24 05:35:00
9:55 PM,35.6,35.6,100,30.48,7.0,SE,3.5,-,N/A,,Mostly Cloudy,130,2013-02-24 05:55:00
10:15 PM,35.6,35.6,100,30.49,7.0,NNW,8.1,-,N/A,,Mostly Cloudy,340,2013-02-24 06:15:00
10:35 PM,37.4,37.4,100,30.48,7.0,ENE,5.8,-,N/A,,Overcast,70,2013-02-24 06:35:00
10:55 PM,39.2,37.4,93,30.49,7.0,East,3.5,-,N/A,,Overcast,90,2013-02-24 06:55:00
11:15 PM,39.2,35.6,87,30.49,7.0,ESE,5.8,-,N/A,,Overcast,110,2013-02-24 07:15:00
11:35 PM,37.4,35.6,93,30.48,7.0,ESE,5.8,-,N/A,,Overcast,110,2013-02-24 07:35:00
11:55 PM,37.4,35.6,93,30.48,7.0,East,5.8,-,N/A,,Overcast,100,2013-02-24 07:55:00